• en Suisse
  • Liste des pays
  • À 7 jours
  • Température de l'eau
  • Carte satellitaire
  • Carte météo
  • Widgets météo
  • user-avatar
    Se connecter

    Météo par heure à Norwich

    Ce jour, 12 Décembre, Mardi

    Heure Température Précipitation Vent Pression Humidité
    00:00 -2°C° 0 mm 6 m/s 744 mmHg 89%
    01:00 -2°C° 0,1 mm 6 m/s 745 mmHg 89%
    02:00 -2°C° 0,1 mm 6 m/s 746 mmHg 90%
    03:00 -2°C° 0,1 mm 6 m/s 747 mmHg 90%
    04:00 -3°C° 0,2 mm 6 m/s 747 mmHg 90%
    05:00 -3°C° 0,2 mm 6 m/s 748 mmHg 90%
    06:00 -3°C° 0,2 mm 6 m/s 749 mmHg 91%
    07:00 -3°C° 0 mm 6 m/s 750 mmHg 91%
    08:00 -4°C° 0 mm 5 m/s 751 mmHg 91%
    09:00 -4°C° 0 mm 5 m/s 751 mmHg 91%
    10:00 -2°C° 0 mm 5 m/s 752 mmHg 89%
    11:00 -1°C° 0 mm 5 m/s 752 mmHg 87%
    12:00 -2°C° 0 mm 6 m/s 753 mmHg 85%
    13:00 -2°C° 0 mm 6 m/s 753 mmHg 87%
    14:00 -2°C° 0 mm 6 m/s 753 mmHg 88%
    15:00 -3°C° 0 mm 6 m/s 753 mmHg 89%
    16:00 -3°C° 0 mm 6 m/s 753 mmHg 89%
    17:00 -3°C° 0 mm 7 m/s 753 mmHg 89%
    18:00 -3°C° 0 mm 7 m/s 753 mmHg 89%
    19:00 -2°C° 0 mm 7 m/s 753 mmHg 88%
    20:00 -1°C° 0 mm 8 m/s 753 mmHg 87%
    21:00 0°C° 0 mm 8 m/s 753 mmHg 86%
    22:00 0°C° 0,2 mm 9 m/s 752 mmHg 86%
    23:00 +1°C° 0,2 mm 10 m/s 751 mmHg 85%

    Demain, 13 Décembre, Mercredi

    Heure Température Précipitation Vent Pression Humidité
    00:00 +2°C° 0,2 mm 10 m/s 750 mmHg 85%
    01:00 +2°C° 1,4 mm 10 m/s 749 mmHg 88%
    02:00 +3°C° 1,4 mm 10 m/s 748 mmHg 90%
    03:00 +3°C° 1,4 mm 10 m/s 748 mmHg 93%
    04:00 +2°C° 0,3 mm 9 m/s 747 mmHg 93%
    05:00 +2°C° 0,3 mm 8 m/s 747 mmHg 94%
    06:00 +2°C° 0,3 mm 7 m/s 747 mmHg 95%
    07:00 +1°C° 0 mm 8 m/s 747 mmHg 94%
    08:00 +1°C° 0 mm 8 m/s 747 mmHg 92%
    09:00 +1°C° 0 mm 8 m/s 747 mmHg 91%
    10:00 +2°C° 0,1 mm 8 m/s 746 mmHg 89%
    11:00 +2°C° 0,1 mm 9 m/s 746 mmHg 88%
    12:00 +3°C° 0,1 mm 10 m/s 745 mmHg 87%
    13:00 +3°C° 0,3 mm 10 m/s 744 mmHg 88%
    14:00 +3°C° 0,3 mm 10 m/s 743 mmHg 90%
    15:00 +3°C° 0,3 mm 10 m/s 741 mmHg 91%
    16:00 +3°C° 1,3 mm 10 m/s 741 mmHg 87%
    17:00 +2°C° 1,3 mm 10 m/s 741 mmHg 83%
    18:00 +1°C° 1,3 mm 10 m/s 741 mmHg 80%
    19:00 +1°C° 0,1 mm 10 m/s 741 mmHg 79%
    20:00 +1°C° 0,1 mm 10 m/s 740 mmHg 78%
    21:00 0°C° 0,1 mm 9 m/s 740 mmHg 77%
    22:00 -1°C° 0,5 mm 11 m/s 740 mmHg 73%
    23:00 -1°C° 0,5 mm 13 m/s 740 mmHg 69%

    Après-demain, 14 Décembre, Jeudi

    Heure Température Précipitation Vent Pression Humidité
    00:00 -1°C° 0,5 mm 15 m/s 739 mmHg 65%
    01:00 -1°C° 0,2 mm 14 m/s 740 mmHg 66%
    02:00 -1°C° 0,2 mm 14 m/s 740 mmHg 68%
    03:00 -2°C° 0,2 mm 13 m/s 741 mmHg 69%
    04:00 -2°C° 0 mm 12 m/s 741 mmHg 71%
    05:00 -2°C° 0 mm 12 m/s 741 mmHg 73%
    06:00 -2°C° 0 mm 11 m/s 741 mmHg 75%
    07:00 -2°C° 0 mm 11 m/s 741 mmHg 76%
    08:00 -2°C° 0 mm 11 m/s 741 mmHg 77%
    09:00 -2°C° 0 mm 10 m/s 741 mmHg 78%
    10:00 0°C° 0 mm 10 m/s 740 mmHg 75%
    11:00 +1°C° 0 mm 10 m/s 740 mmHg 72%
    12:00 +1°C° 0 mm 10 m/s 739 mmHg 69%
    13:00 +1°C° 0 mm 9 m/s 739 mmHg 70%
    14:00 +1°C° 0 mm 8 m/s 739 mmHg 72%
    15:00 0°C° 0 mm 8 m/s 738 mmHg 74%
    16:00 0°C° 0 mm 7 m/s 738 mmHg 77%
    17:00 -1°C° 0 mm 6 m/s 738 mmHg 81%
    18:00 -2°C° 0 mm 6 m/s 738 mmHg 84%
    19:00 -2°C° 0 mm 6 m/s 738 mmHg 84%
    20:00 0°C° 0 mm 5 m/s 738 mmHg 85%
    21:00 0°C° 0 mm 5 m/s 738 mmHg 86%
    22:00 0°C° 0,1 mm 5 m/s 738 mmHg 87%
    23:00 0°C° 0,1 mm 5 m/s 738 mmHg 88%

    15 Décembre, Vendredi

    Heure Température Précipitation Vent Pression Humidité
    00:00 0°C° 0,1 mm 4 m/s 738 mmHg 89%
    01:00 0°C° 0 mm 5 m/s 738 mmHg 90%
    02:00 0°C° 0 mm 5 m/s 739 mmHg 91%
    03:00 -2°C° 0 mm 6 m/s 739 mmHg 92%
    04:00 -2°C° 0 mm 6 m/s 739 mmHg 89%
    05:00 -2°C° 0 mm 6 m/s 740 mmHg 87%
    06:00 -2°C° 0 mm 6 m/s 740 mmHg 85%
    07:00 -2°C° 0,2 mm 6 m/s 741 mmHg 86%
    08:00 -1°C° 0,2 mm 6 m/s 742 mmHg 86%
    09:00 -1°C° 0,2 mm 6 m/s 743 mmHg 87%
    10:00 0°C° 0,1 mm 7 m/s 744 mmHg 81%
    11:00 +2°C° 0,1 mm 7 m/s 745 mmHg 76%
    12:00 +2°C° 0,1 mm 8 m/s 746 mmHg 71%
    13:00 +2°C° 0,1 mm 8 m/s 746 mmHg 74%
    14:00 +1°C° 0,1 mm 8 m/s 747 mmHg 77%
    15:00 +1°C° 0,1 mm 9 m/s 748 mmHg 79%
    16:00 0°C° 0,1 mm 8 m/s 748 mmHg 81%
    17:00 0°C° 0,1 mm 8 m/s 749 mmHg 83%
    18:00 -1°C° 0,1 mm 8 m/s 750 mmHg 85%
    19:00 -1°C° 0,1 mm 8 m/s 750 mmHg 86%
    20:00 -1°C° 0,1 mm 7 m/s 751 mmHg 87%
    21:00 -1°C° 0,1 mm 7 m/s 752 mmHg 88%
    22:00 -1°C° 0,1 mm 7 m/s 752 mmHg 89%
    23:00 -2°C° 0,1 mm 7 m/s 753 mmHg 90%

    16 Décembre, Samedi

    Heure Température Précipitation Vent Pression Humidité
    00:00 -2°C° 0,1 mm 7 m/s 753 mmHg 91%
    01:00 -2°C° 0,1 mm 7 m/s 753 mmHg 91%
    02:00 -3°C° 0,1 mm 7 m/s 754 mmHg 90%
    03:00 -3°C° 0,1 mm 7 m/s 754 mmHg 90%
    04:00 -3°C° 0 mm 7 m/s 754 mmHg 88%
    05:00 -3°C° 0 mm 7 m/s 754 mmHg 87%
    06:00 -3°C° 0 mm 7 m/s 754 mmHg 85%
    07:00 -3°C° 0 mm 7 m/s 755 mmHg 83%
    08:00 -3°C° 0 mm 7 m/s 755 mmHg 80%
    09:00 -3°C° 0 mm 7 m/s 756 mmHg 78%
    10:00 -2°C° 0,1 mm 7 m/s 756 mmHg 75%
    11:00 -1°C° 0,1 mm 7 m/s 757 mmHg 72%
    12:00 -1°C° 0,1 mm 7 m/s 757 mmHg 69%
    13:00 -1°C° 0,1 mm 7 m/s 757 mmHg 70%
    14:00 -1°C° 0,1 mm 7 m/s 758 mmHg 72%
    15:00 -1°C° 0,1 mm 7 m/s 758 mmHg 74%
    16:00 -2°C° 0 mm 7 m/s 758 mmHg 75%
    17:00 -2°C° 0 mm 7 m/s 759 mmHg 76%
    18:00 -3°C° 0 mm 7 m/s 760 mmHg 77%
    19:00 -3°C° 0 mm 7 m/s 760 mmHg 78%
    20:00 -3°C° 0 mm 7 m/s 760 mmHg 79%
    21:00 -3°C° 0 mm 6 m/s 761 mmHg 79%
    22:00 -3°C° 0 mm 6 m/s 761 mmHg 82%
    23:00 -3°C° 0 mm 6 m/s 761 mmHg 85%

    17 Décembre, Dimanche

    Heure Température Précipitation Vent Pression Humidité
    00:00 -2°C° 0 mm 5 m/s 761 mmHg 88%
    01:00 -2°C° 0 mm 5 m/s 762 mmHg 88%
    02:00 -2°C° 0 mm 5 m/s 762 mmHg 89%
    03:00 -2°C° 0 mm 5 m/s 762 mmHg 90%
    04:00 -2°C° 0 mm 5 m/s 762 mmHg 91%
    05:00 -2°C° 0 mm 4 m/s 762 mmHg 92%
    06:00 -2°C° 0 mm 4 m/s 762 mmHg 93%
    07:00 -2°C° 0 mm 4 m/s 762 mmHg 93%
    08:00 -1°C° 0 mm 3 m/s 762 mmHg 93%
    09:00 -1°C° 0 mm 3 m/s 763 mmHg 93%
    10:00 0°C° 0 mm 3 m/s 763 mmHg 90%
    11:00 +1°C° 0 mm 3 m/s 763 mmHg 86%
    12:00 +2°C° 0 mm 3 m/s 763 mmHg 82%
    13:00 +2°C° 0 mm 3 m/s 763 mmHg 85%
    14:00 +1°C° 0 mm 3 m/s 763 mmHg 88%
    15:00 +1°C° 0 mm 3 m/s 763 mmHg 91%
    16:00 0°C° 0 mm 3 m/s 763 mmHg 92%
    17:00 0°C° 0 mm 3 m/s 763 mmHg 93%
    18:00 -1°C° 0 mm 3 m/s 763 mmHg 94%
    19:00 -2°C° 0 mm 4 m/s 763 mmHg 95%
    20:00 -2°C° 0 mm 4 m/s 763 mmHg 95%
    21:00 -2°C° 0 mm 4 m/s 763 mmHg 95%
    22:00 -1°C° 0 mm 4 m/s 763 mmHg 94%
    23:00 -1°C° 0 mm 5 m/s 763 mmHg 94%
    Voir plus